[[{"header":{"parameterUnit":"m.s-1","parameterCategory":1,"la1":30.2991,"la2":30.254,"lo1":-89.0895,"lo2":-89.0444,"dx":0.0017,"dy":0.0017,"nx":28,"ny":28,"refTime":"2022-12-16T15:00:00:Z","depth":0,"parameterNumber":2,"parameterNumberName":"U-component_of_WINDS"},"data":[0,0,0,0,0,0,0,0,0,0,0,0,0,0,0,0,0,0,0,0,0,0,0,0,0,0,0,0,0,0,0,0,0,0,0,0,0,0,0,0,0,0,0,0,0,0,0,0,0,0,0,0,0,0,0,0,0,0,-0.5908,-0.5907,0,-0.5868,-0.5868,-0.5868,-0.5805,-0.5803,-0.5802,-0.5801,-0.5762,-0.5762,-0.5762,0,0,0,0,0,0,0,0,0,0,0,0,0,-0.5929,-0.5929,-0.5908,-0.5907,-0.5907,-0.5868,-0.5868,-0.5867,-0.5805,-0.5803,-0.5802,-0.5801,-0.5762,-0.5762,-0.5762,0,0,0,0,0,0,0,0,0,0,0,0,0,-0.5908,-0.5929,-0.5908,-0.5871,-0.5867,-0.5869,-0.5868,-0.5867,-0.5805,-0.5803,-0.5802,-0.58,-0.5762,-0.5762,-0.5762,-0.5797,0,0,-0.5762,-0.5762,0,0,0,0,0,0,0,0,-0.5909,-0.5907,-0.5877,-0.5873,-0.5869,-0.584,-0.5861,-0.5844,-0.5805,-0.5829,-0.5801,-0.5799,-0.5789,-0.5787,-0.5784,-0.5795,-0.5794,-0.5762,-0.5762,-0.5762,-0.5762,0,0,0,0,0,0,0,-0.5911,-0.5909,-0.5892,-0.5876,-0.5872,-0.5856,-0.5852,-0.5858,-0.5819,-0.5826,-0.5822,-0.5818,-0.5787,-0.5784,-0.5782,-0.5793,-0.5762,-0.5762,-0.5762,-0.5762,-0.5832,-0.5834,0,0,0,0,0,0,-0.5918,-0.591,-0.5893,-0.5891,-0.5885,-0.5857,-0.5852,-0.5851,-0.5819,-0.5812,-0.5819,-0.5815,-0.5784,-0.5782,-0.5781,-0.582,-0.5762,-0.5762,-0.5763,-0.583,-0.5832,-0.5834,0,0,0,0,0,0,-0.5918,-0.5917,-0.5895,-0.5899,-0.5895,-0.5859,-0.5858,-0.5851,-0.5848,-0.5814,-0.5807,-0.5823,-0.5783,-0.578,-0.5794,-0.5818,-0.5763,-0.5763,-0.5828,-0.5831,-0.5833,-0.5899,0,0,0,0,0,0,-0.5919,-0.5917,-0.593,-0.59,-0.5895,-0.5908,-0.586,-0.5851,-0.5848,-0.5842,-0.5815,-0.5809,-0.5781,-0.5794,-0.5794,-0.5817,-0.5763,-0.5826,-0.5829,-0.5833,-0.5894,-0.5904,-0.5911,0,0,0,0,0,-0.592,-0.595,-0.5931,-0.5929,-0.591,-0.591,-0.5907,-0.5875,-0.585,-0.5863,-0.5841,-0.581,-0.5815,-0.5796,-0.5795,-0.5819,-0.5824,-0.5828,-0.5832,-0.5891,-0.5902,-0.5911,0,0,0,0,0,0,-0.5984,-0.5945,-0.5924,-0.5945,-0.5931,-0.5899,-0.5914,-0.5887,-0.5881,-0.5875,-0.5835,-0.583,-0.5848,-0.5834,-0.5814,-0.5851,-0.5815,-0.5819,-0.5859,-0.587,-0.5878,-0.5881,-0.5763,0,0,0,0,0,-0.6,-0.6003,-0.5969,-0.5991,-0.5985,-0.5951,-0.595,-0.5926,-0.591,-0.5904,-0.5883,-0.587,-0.5868,-0.5868,-0.5864,-0.5892,-0.5886,-0.5908,-0.5916,-0.5923,-0.5928,-0.5942,-0.5952,-0.5848,-0.5848,-0.5848,0,0,-0.6035,-0.6014,-0.6018,-0.6003,-0.599,-0.5994,-0.5947,-0.5953,-0.5956,-0.5905,-0.5916,-0.5901,-0.5883,-0.5903,-0.5911,-0.5892,-0.5955,-0.5928,-0.5934,-0.5935,-0.5947,-0.5957,-0.5966,-0.5851,-0.585,-0.585,0,0,-0.6099,-0.6083,-0.61,-0.6088,-0.6068,-0.6045,-0.6049,-0.6021,-0.6009,-0.6019,-0.5982,-0.5985,-0.5982,-0.5972,-0.5966,-0.6026,-0.5998,-0.6026,-0.6071,-0.6085,-0.6094,-0.6101,-0.6123,-0.6132,-0.6031,-0.6031,-0.6031,0,-0.6145,-0.6149,-0.6112,-0.6121,-0.6116,-0.607,-0.6087,-0.6077,-0.6057,-0.6055,-0.6034,-0.6031,-0.6015,-0.6033,-0.6048,-0.6044,-0.6049,-0.603,-0.6095,-0.6102,-0.6108,-0.6129,-0.6138,-0.6034,-0.6034,-0.6034,-0.6033,0,-0.6206,-0.6209,-0.6225,-0.6207,-0.6204,-0.6217,-0.6183,-0.6184,-0.616,-0.614,-0.6152,-0.6131,-0.6124,-0.6126,-0.6102,-0.6141,-0.613,-0.6102,-0.6066,-0.6122,-0.6142,-0.6149,-0.604,-0.6038,-0.6037,-0.6036,0,0,-0.631,-0.6272,-0.6278,-0.627,-0.6245,-0.6247,-0.6258,-0.625,-0.6252,-0.624,-0.6249,-0.6248,-0.6223,-0.6217,-0.6192,-0.6204,-0.6255,-0.6176,-0.6175,-0.6192,-0.6297,-0.6318,-0.6328,-0.6236,-0.6237,-0.6238,-0.6299,0,-0.6371,-0.6387,-0.6355,-0.6379,-0.6382,-0.6339,-0.6348,-0.6334,-0.6315,-0.6316,-0.6295,-0.6296,-0.6262,-0.6258,-0.6268,-0.6247,-0.6276,-0.6242,-0.6244,-0.6245,-0.6252,-0.6338,-0.6361,-0.6419,-0.6306,-0.6307,-0.6308,0,-0.6443,-0.6435,-0.646,-0.6433,-0.6434,-0.6443,-0.6433,-0.6434,-0.6417,-0.6403,-0.6396,-0.6366,-0.6376,-0.6339,-0.6352,-0.633,-0.6329,-0.6319,-0.632,-0.632,-0.6281,-0.6342,-0.6437,-0.6446,-0.6319,-0.6319,-0.6318,0,-0.6518,-0.6513,-0.6527,-0.6521,-0.6491,-0.6499,-0.6486,-0.6468,-0.6465,-0.6457,-0.6455,-0.6448,-0.6444,-0.644,-0.641,-0.6386,-0.6427,-0.6388,-0.6416,-0.6417,-0.6427,-0.6427,-0.6525,-0.6425,-0.6425,-0.6425,-0.6424,0,-0.659,-0.6607,-0.6561,-0.657,-0.6588,-0.6551,-0.657,-0.6553,-0.6537,-0.6543,-0.6504,-0.651,-0.6469,-0.6471,-0.6447,-0.6462,-0.646,-0.645,-0.6443,-0.6454,-0.6456,-0.6454,-0.6449,-0.6427,-0.6426,-0.6426,-0.6426,0,-0.6677,-0.6647,-0.666,-0.663,-0.6623,-0.6638,-0.6612,-0.6619,-0.6598,-0.6605,-0.6605,-0.6571,-0.6571,-0.6541,-0.6534,-0.6518,-0.6544,-0.653,-0.655,-0.6546,-0.6576,-0.6574,-0.6677,-0.6689,-0.658,-0.6581,-0.6582,0,-0.6726,-0.6738,-0.6709,-0.671,-0.6699,-0.6701,-0.6698,-0.6662,-0.666,-0.6642,-0.6652,-0.6649,-0.6645,-0.6647,-0.6623,-0.6618,-0.6604,-0.664,-0.6603,-0.6613,-0.6606,-0.6606,-0.6608,-0.6648,-0.665,-0.6651,-0.6652,0,-0.6815,-0.6799,-0.6796,-0.6789,-0.6786,-0.6779,-0.6768,-0.6771,-0.6731,-0.6732,-0.6732,-0.6728,-0.6722,-0.672,-0.671,-0.6698,-0.6669,-0.6663,-0.667,-0.6681,-0.6693,-0.6689,-0.6573,-0.6662,-0.6661,-0.666,-0.6659,-0.6659,-0.6885,-0.6894,-0.6875,-0.6874,-0.6862,-0.6854,-0.6859,-0.6838,-0.6837,-0.6829,-0.6808,-0.6811,-0.6794,-0.6779,-0.6769,-0.6771,-0.6753,-0.6762,-0.6765,-0.6768,-0.6774,-0.6692,-0.6769,-0.6769,-0.6769,-0.6768,-0.6768,0,-0.6973,-0.6959,-0.6958,-0.6945,-0.6944,-0.6915,-0.6903,-0.6904,-0.6907,-0.6894,-0.689,-0.689,-0.6888,-0.6863,-0.6858,-0.6865,-0.6852,-0.6865,-0.6865,-0.6863,-0.679,-0.6786,-0.6876,-0.6876,-0.6876,-0.6876,-0.6876,-0.6876,-0.7019,-0.7033,-0.7016,-0.7024,-0.701,-0.7012,-0.7008,-0.7,-0.6989,-0.6991,-0.6988,-0.6972,-0.6954,-0.6948,-0.6945,-0.6937,-0.6938,-0.6956,-0.6945,-0.6878,-0.6868,-0.6858,-0.6853,-0.6956,-0.6956,-0.7017,-0.7018,-0.7018]},{"header":{"parameterUnit":"m.s-1","parameterCategory":1,"la1":30.2991,"la2":30.254,"lo1":-89.0895,"lo2":-89.0444,"dx":0.0017,"dy":0.0017,"nx":28,"ny":28,"refTime":"2022-12-16T15:00:00:Z","depth":0,"parameterNumber":3,"parameterNumberName":"V-component_of_WINDS"},"data":[0,0,0,0,0,0,0,0,0,0,0,0,0,0,0,0,0,0,0,0,0,0,0,0,0,0,0,0,0,0,0,0,0,0,0,0,0,0,0,0,0,0,0,0,0,0,0,0,0,0,0,0,0,0,0,0,0,0,-0.5777,-0.5777,0,-0.5832,-0.5833,-0.5834,-0.5846,-0.5845,-0.5845,-0.5844,-0.5901,-0.5903,-0.5905,0,0,0,0,0,0,0,0,0,0,0,0,0,-0.568,-0.5682,-0.5776,-0.5777,-0.5778,-0.5832,-0.5833,-0.5834,-0.5846,-0.5845,-0.5845,-0.5844,-0.5901,-0.5903,-0.5905,0,0,0,0,0,0,0,0,0,0,0,0,0,-0.5727,-0.5682,-0.5776,-0.579,-0.5792,-0.5832,-0.5833,-0.5834,-0.5846,-0.5845,-0.5845,-0.5844,-0.59,-0.5903,-0.5906,-0.5935,0,0,-0.5914,-0.5916,0,0,0,0,0,0,0,0,-0.5725,-0.5731,-0.5788,-0.579,-0.5792,-0.5831,-0.582,-0.5868,-0.5846,-0.5826,-0.5844,-0.5844,-0.5879,-0.5883,-0.5895,-0.5938,-0.594,-0.5915,-0.5916,-0.5917,-0.5918,0,0,0,0,0,0,0,-0.5721,-0.5729,-0.5799,-0.5788,-0.5791,-0.5794,-0.58,-0.5829,-0.5855,-0.5827,-0.5828,-0.5835,-0.588,-0.5892,-0.5896,-0.5941,-0.5914,-0.5917,-0.5919,-0.592,-0.6012,-0.6013,0,0,0,0,0,0,-0.5716,-0.5726,-0.5797,-0.58,-0.5756,-0.5796,-0.5803,-0.5819,-0.5855,-0.5859,-0.5835,-0.5835,-0.5888,-0.5893,-0.5898,-0.5937,-0.5917,-0.592,-0.5922,-0.6012,-0.6013,-0.6013,0,0,0,0,0,0,-0.5714,-0.5722,-0.5795,-0.5763,-0.5773,-0.5798,-0.5817,-0.5821,-0.5833,-0.5861,-0.5865,-0.5843,-0.5887,-0.5894,-0.5926,-0.5939,-0.5921,-0.5924,-0.6011,-0.6012,-0.6013,-0.6013,0,0,0,0,0,0,-0.5711,-0.5721,-0.5733,-0.5764,-0.5774,-0.5822,-0.5817,-0.5822,-0.5838,-0.5839,-0.5869,-0.5874,-0.5887,-0.5922,-0.5929,-0.5942,-0.5926,-0.601,-0.6011,-0.6013,-0.6012,-0.6014,-0.6015,0,0,0,0,0,-0.5707,-0.573,-0.5733,-0.5742,-0.579,-0.5822,-0.5829,-0.5844,-0.5839,-0.5851,-0.5869,-0.5873,-0.5936,-0.5925,-0.5933,-0.5948,-0.6009,-0.6011,-0.6013,-0.6011,-0.6013,-0.6015,0,0,0,0,0,0,-0.57,-0.5734,-0.5738,-0.5772,-0.5794,-0.5824,-0.584,-0.5846,-0.5869,-0.5869,-0.5886,-0.5893,-0.5924,-0.5939,-0.5926,-0.5979,-0.5972,-0.5976,-0.5968,-0.5971,-0.5972,-0.5969,-0.5929,0,0,0,0,0,-0.5702,-0.5726,-0.5755,-0.5782,-0.5793,-0.5814,-0.5829,-0.5839,-0.5862,-0.5872,-0.5892,-0.5914,-0.5939,-0.5956,-0.598,-0.6013,-0.6021,-0.6027,-0.6029,-0.603,-0.6033,-0.6053,-0.6056,-0.6019,-0.6019,-0.6019,0,0,-0.5707,-0.5729,-0.5743,-0.5781,-0.5799,-0.5824,-0.5822,-0.5848,-0.5866,-0.5876,-0.5908,-0.5923,-0.5949,-0.5982,-0.5998,-0.5995,-0.6045,-0.6032,-0.6033,-0.6036,-0.6055,-0.6059,-0.6062,-0.602,-0.602,-0.602,0,0,-0.5729,-0.5748,-0.5773,-0.5791,-0.5819,-0.5833,-0.5839,-0.5869,-0.5879,-0.5911,-0.5919,-0.5941,-0.5983,-0.6002,-0.6018,-0.6047,-0.6052,-0.6054,-0.6064,-0.6083,-0.6086,-0.6089,-0.61,-0.6104,-0.6057,-0.6057,-0.6057,0,-0.5732,-0.577,-0.5785,-0.5811,-0.5827,-0.5837,-0.5862,-0.5879,-0.5914,-0.5925,-0.5922,-0.5976,-0.5994,-0.6032,-0.6039,-0.6051,-0.6058,-0.6051,-0.6084,-0.6087,-0.609,-0.6101,-0.6105,-0.6057,-0.6057,-0.6057,-0.6057,0,-0.5772,-0.5798,-0.5815,-0.5848,-0.5867,-0.5892,-0.5911,-0.5928,-0.5935,-0.595,-0.5983,-0.6005,-0.6035,-0.6044,-0.6052,-0.6083,-0.6081,-0.6081,-0.6075,-0.6093,-0.6104,-0.6109,-0.6057,-0.6057,-0.6057,-0.6057,0,0,-0.5793,-0.5834,-0.584,-0.5856,-0.5887,-0.5907,-0.5933,-0.5962,-0.5977,-0.5999,-0.6022,-0.6058,-0.6058,-0.6075,-0.6085,-0.6101,-0.6124,-0.6099,-0.61,-0.6104,-0.6161,-0.6163,-0.6168,-0.6127,-0.6128,-0.6128,-0.616,0,-0.582,-0.5867,-0.5881,-0.5921,-0.5945,-0.5954,-0.5977,-0.5998,-0.6013,-0.6035,-0.605,-0.6076,-0.6073,-0.6084,-0.61,-0.6118,-0.6136,-0.6115,-0.6149,-0.615,-0.6144,-0.6173,-0.6175,-0.6203,-0.6164,-0.6165,-0.6165,0,-0.5858,-0.5882,-0.5924,-0.5953,-0.5964,-0.5984,-0.6012,-0.6034,-0.6058,-0.6067,-0.6087,-0.6095,-0.6122,-0.6114,-0.6152,-0.6138,-0.6152,-0.6163,-0.6164,-0.6169,-0.616,-0.618,-0.6212,-0.6217,-0.6172,-0.6171,-0.6171,0,-0.587,-0.5913,-0.5944,-0.5957,-0.5991,-0.6005,-0.602,-0.6044,-0.6061,-0.6085,-0.6096,-0.6123,-0.6138,-0.6159,-0.6174,-0.6167,-0.6212,-0.6204,-0.6221,-0.6221,-0.6232,-0.6231,-0.6268,-0.6238,-0.6238,-0.6238,-0.6238,0,-0.59,-0.5926,-0.5951,-0.597,-0.5999,-0.6015,-0.6043,-0.6058,-0.608,-0.6102,-0.6111,-0.6132,-0.615,-0.6174,-0.6186,-0.6216,-0.6222,-0.6231,-0.6234,-0.6231,-0.6231,-0.6242,-0.6241,-0.6239,-0.6239,-0.6238,-0.6238,0,-0.5919,-0.5937,-0.5972,-0.6001,-0.6009,-0.603,-0.6055,-0.6074,-0.6088,-0.6116,-0.6124,-0.6146,-0.6174,-0.6191,-0.6226,-0.6234,-0.6268,-0.627,-0.626,-0.6262,-0.6278,-0.6277,-0.6326,-0.6333,-0.6296,-0.6297,-0.6297,0,-0.5938,-0.5958,-0.599,-0.6006,-0.6021,-0.6046,-0.6064,-0.6079,-0.6097,-0.6127,-0.6142,-0.6171,-0.6195,-0.6239,-0.6258,-0.6285,-0.6289,-0.6303,-0.6293,-0.6289,-0.6291,-0.629,-0.6293,-0.6306,-0.6306,-0.6306,-0.6307,0,-0.597,-0.5978,-0.6003,-0.6031,-0.6051,-0.6073,-0.6096,-0.6108,-0.6128,-0.6147,-0.6176,-0.6195,-0.6231,-0.6259,-0.6288,-0.6303,-0.6309,-0.631,-0.6315,-0.6313,-0.6308,-0.6313,-0.6267,-0.6309,-0.6309,-0.6309,-0.6308,-0.6308,-0.5991,-0.601,-0.6035,-0.6063,-0.6081,-0.6102,-0.6122,-0.6138,-0.6163,-0.6194,-0.6201,-0.6232,-0.6256,-0.6295,-0.6311,-0.6335,-0.6333,-0.6341,-0.6343,-0.6345,-0.6346,-0.6302,-0.634,-0.634,-0.634,-0.634,-0.634,0,-0.6025,-0.6042,-0.6067,-0.6098,-0.612,-0.6122,-0.6147,-0.6165,-0.6192,-0.6214,-0.6238,-0.6271,-0.6299,-0.632,-0.6348,-0.6363,-0.6367,-0.6371,-0.6371,-0.6374,-0.6346,-0.6339,-0.6367,-0.6367,-0.6367,-0.6367,-0.6367,-0.6367,-0.6045,-0.6078,-0.6088,-0.613,-0.6146,-0.6177,-0.6191,-0.621,-0.6228,-0.6265,-0.6288,-0.6302,-0.6324,-0.6354,-0.6379,-0.6385,-0.6396,-0.6399,-0.6405,-0.6379,-0.6376,-0.6373,-0.6367,-0.6401,-0.6401,-0.6432,-0.6432,-0.6433]}]]